1371081626334,99.4447
1371081686334,100.036
1371081746334,99.5700
1371081806334,100.204
1371081866334,99.5944
1371081926334,99.9744
1371081986334,99.9534
1371082046334,99.6571
1371082106334,99.5271
1371082166334,99.5023
1371082226334,99.5651
1371082286334,99.7859
1371082346334,99.5548
1371082406334,98.8913
1371082466334,99.6566
1371082526334,99.5537
1371082586334,98.9246
1371082646334,99.2733
1371082706334,99.4369
1371082766334,99.1588
1371082826334,99.2913
1371082886334,99.3878
1371082946334,99.7067
1371083006334,99.0011
1371083066334,99.1894
1371083126334,99.2360
1371083186334,99.3465
1371083246334,99.1005
1371083306334,99.0865
1371083366334,99.3733
1371083426334,99.0037
1371083486334,98.9348
1371083546334,98.9663
1371083606334,98.8497
1371083666334,99.3598
1371083726334,99.5887
1371083786334,99.1098
1371083846334,99.2336
1371083906334,98.9635
1371083966334,99.2888
1371084026334,99.4435
1371084086334,98.9898
1371084146334,99.2115
1371084206334,98.8821
1371084266334,99.2659
1371084326334,99.5296
1371084386334,99.0574
1371084446334,99.1914
1371084506334,98.9416
1371084566334,99.3205
1371084626334,99.0015
1371084686334,99.2673
1371084746334,99.1810
1371084806334,99.0335
1371084866334,99.2648
1371084926334,98.8653
1371084986334,98.9811
1371085046334,98.8653
1371085106334,98.9021
1371085166334,98.9008
1371085226345,98.9295
1371085286345,99.4081
1371085346345,99.2373
1371085406345,99.1811
1371085466345,98.8672
1371085526345,99.2133
1371085586345,99.0988
1371085646345,98.8497
1371085706345,99.3156
1371085766345,99.0351
1371085826345,99.0270
1371085886345,99.0430
1371085946345,99.0902
1371086006345,99.1790
1371086066345,99.0482
1371086126345,99.2971
1371086186345,99.5984
1371086246345,98.8172
1371086306345,99.2543
1371086366345,98.7026
1371086426345,98.3554
1371086486345,98.7415
1371086546345,99.2845
1371086606345,98.9962
1371086666345,98.5373
1371086726345,98.6372
1371086786345,99.2023
1371086846345,98.7848
1371086906345,98.7549
1371086966345,99.3318
1371087026345,98.5569
1371087086345,98.9776
1371087146345,98.4068
1371087206345,98.2333
1371087266345,98.6767
1371087326345,99.0903
1371087386345,98.4594
1371087446345,97.7909
1371087506345,98.5214
1371087566345,98.5652
1371087626345,98.6499
1371087686345,98.5907
1371087746345,99.0781
1371087806345,98.8107
1371087866345,98.8415
1371087926345,98.8538
1371087986345,98.5634
1371088046345,98.8005
1371088106345,98.7794
1371088166345,98.6345
1371088226345,98.9963
1371088286345,98.5530
1371088346345,98.3575
1371088406345,98.7975
1371088466345,98.3234
1371088526345,98.6100
1371088586345,98.3460
1371088646345,99.1727
1371088706345,98.4160
1371088766345,98.3051
1371088826355,99.0238
1371088886355,99.2478
1371088946355,98.0021
1371089006355,98.7101
1371089066355,99.2406
1371089126355,98.4747
1371089186355,98.4451
1371089246355,98.6136
1371089306355,98.9457
1371089366355,98.6046
1371089426355,98.6668
1371089486355,98.8214
1371089546355,98.9182
1371089606355,98.8683
1371089666355,98.8936
1371089726355,98.5740
1371089786355,98.7143
1371089846355,99.1425
1371089906355,99.2884
1371089966355,99.0496
1371090026355,98.6917
1371090086355,98.8529
1371090146355,99.0316
1371090206355,99.1574
1371090266355,99.0247
1371090326355,98.4362
1371090386355,99.0336
1371090446355,98.7955
1371090506355,99.0830
1371090566355,99.2924
1371090626355,98.9033
1371090686355,99.3174
1371090746355,99.4510
1371090806355,99.4612
1371090866355,98.9011
1371090926355,98.6627
1371090986355,98.9936
1371091046355,99.0848
1371091106355,98.6167
1371091166355,99.0264
1371091226355,98.7787
1371091286355,98.7225
1371091346355,98.9840
1371091406355,99.1033
1371091466355,98.9631
1371091526355,98.4305
1371091586355,98.6185
1371091646355,98.8732
1371091706355,99.0902
1371091766355,98.7683
1371091826355,99.0145
1371091886355,98.7380
1371091946355,99.1057
1371092006355,98.9408
1371092066355,99.0694
1371092126355,99.2145
1371092186355,98.7354
1371092246355,99.0193
1371092306355,99.0999
1371092366355,98.8456
1371092426365,99.1328
1371092486365,99.2420
1371092546365,99.2457
1371092606365,99.3629
1371092666365,99.0232
1371092726365,99.1757
1371092786365,99.0592
1371092846365,99.1169
1371092906365,98.8092
1371092966365,99.4778
1371093026365,99.2638
1371093086365,98.8202
1371093146365,99.7625
1371093206365,99.2360
1371093266365,99.0565
1371093326365,99.2482
1371093386365,99.4890
1371093446365,99.2654
1371093506365,99.3641
1371093566365,99.3988
1371093626365,99.2537
1371093686365,99.2542
1371093746365,99.2866
1371093806365,99.3423
1371093866365,99.1566
1371093926365,99.0775
1371093986365,99.2712
1371094046365,99.0114
1371094106365,98.9599
1371094166365,98.7869
1371094226365,99.2883
1371094286365,99.4262
1371094346365,98.7832
1371094406365,98.8521
1371094466365,98.7505
1371094526365,98.9008
1371094586365,99.5755
1371094646365,99.1254
1371094706365,99.0470
1371094766365,99.2185
1371094826365,98.6019
1371094886365,98.9052
1371094946365,99.1529
1371095006365,99.1253
1371095066365,99.2035
1371095126365,99.3870
1371095186365,99.0729
1371095246365,99.2740
1371095306365,99.2807
1371095366365,99.3610
1371095426365,99.5026
1371095486365,98.9639
1371095546365,99.3014
1371095606365,98.9506
1371095666365,99.2792
1371095726365,99.0256
1371095786365,99.3613
1371095846365,99.5751
1371095906365,98.9480
1371095966365,99.2533
1371096026374,99.2567
1371096086374,99.1412
1371096146374,99.0194
1371096206374,99.1848
1371096266374,99.1823
1371096326374,99.1488
1371096386374,99.2104
1371096446374,99.2453
1371096506374,99.1127
1371096566374,98.9272
1371096626374,99.2714
1371096686374,99.2203
1371096746374,99.3606
1371096806374,99.2438
1371096866374,98.7434
1371096926374,98.9100
1371096986374,98.9668
1371097046374,99.8581
1371097106374,99.1966
1371097166374,99.4107
1371097226374,99.4331
1371097286374,99.4147
1371097346374,99.1816
1371097406374,98.9278
1371097466374,99.4383
1371097526374,99.2220
1371097586374,99.1694
1371097646374,98.9445
1371097706374,99.1683
1371097766374,99.4826
1371097826374,99.1659
1371097886374,99.5697
1371097946374,99.6123
1371098006374,98.9503
1371098066374,99.0647
1371098126374,99.3574
1371098186374,99.3427
1371098246374,99.3762
1371098306374,99.4172
1371098366374,99.3388
1371098426374,99.1409
1371098486374,99.4843
1371098546374,99.5302
1371098606374,99.5036
1371098666374,99.6459
1371098726374,99.0950
1371098786374,98.9939
1371098846374,98.9615
1371098906374,98.9790
1371098966374,98.8344
1371099026374,99.0539
1371099086374,99.3185
1371099146374,99.1390
1371099206374,99.4832
1371099266374,99.1812
1371099326374,99.0033
1371099386374,99.1415
1371099446374,99.2400
1371099506374,99.0034
1371099566374,99.0457
1371099626384,99.4107
1371099686384,99.3521
1371099746384,98.7898
1371099806384,99.3227
1371099866384,99.0782
1371099926384,99.0625
1371099986384,99.3503
1371100046384,98.8310
1371100106384,98.8024
1371100166384,98.7451
1371100226384,99.2185
1371100286384,98.7081
1371100346384,98.7162
1371100406384,98.4350
1371100466384,98.7597
1371100526384,98.6858
1371100586384,98.8155
1371100646384,98.1642
1371100706384,99.0906
1371100766384,98.8522
1371100826384,99.1141
1371100886384,98.9328
1371100946384,98.9903
1371101006384,98.7114
1371101066384,98.7571
1371101126384,98.8158
1371101186384,98.9519
1371101246384,98.2585
1371101306384,98.5796
1371101366384,98.5989
1371101426384,98.7457
1371101486384,98.5764
1371101546384,98.9134
1371101606384,98.9164
1371101666384,99.0624
1371101726384,98.9518
1371101786384,98.8434
1371101846384,98.8510
1371101906384,98.2867
1371101966384,98.4387
1371102026384,98.7237
1371102086384,99.2276
1371102146384,99.2494
1371102206384,99.2923
1371102266384,98.8564
1371102326384,98.6807
1371102386384,99.1687
1371102446384,99.1107
1371102506384,98.9086
1371102566384,99.0391
1371102626384,98.6306
1371102686384,98.4497
1371102746384,98.8557
1371102806384,98.9209
1371102866384,98.5649
1371102926384,98.7602
1371102986384,98.6623
1371103046384,98.4844
1371103106384,98.8653
1371103166384,99.1313
1371103226393,99.0305
1371103286393,99.3814
1371103346393,98.8590
1371103406393,99.3151
1371103466393,99.3669
1371103526393,98.8030
1371103586393,99.1444
1371103646393,99.3728
1371103706393,98.9860
1371103766393,99.1914
1371103826393,98.9048
1371103886393,99.1376
1371103946393,98.8837
1371104006393,99.9625
1371104066393,99.4730
1371104126393,99.4061
1371104186393,99.2611
1371104246393,99.6495
1371104306393,99.3651
1371104366393,99.6976
1371104426393,99.5354
1371104486393,99.0789
1371104546393,99.5116
1371104606393,99.5183
1371104666393,99.0189
1371104726393,99.2271
1371104786393,99.2469
1371104846393,99.3063
1371104906393,98.9848
1371104966393,98.9918
1371105026393,99.1488
1371105086393,99.5291
1371105146393,99.7156
1371105206393,99.5846
1371105266393,99.3442
1371105326393,99.8142
1371105386393,99.4279
1371105446393,99.3840
1371105506393,99.2618
1371105566393,99.8292
1371105626393,99.8475
1371105686393,99.4652
1371105746393,99.9341
1371105806393,99.5162
1371105866393,99.9402
1371105926393,99.6619
1371105986393,99.7613
1371106046393,99.8023
1371106106393,100.233
1371106166393,99.7320
1371106226393,99.7959
1371106286393,99.4653
1371106346393,99.9649
1371106406393,99.8915
1371106466393,99.7391
1371106526393,99.6211
1371106586393,100.189
1371106646393,99.8173
1371106706393,100.010
1371106766393,99.8153
1371106826402,100.088
1371106886402,99.7264
1371106946402,100.258
1371107006402,99.8234
1371107066402,100.047
1371107126402,99.9987
1371107186402,99.4863
1371107246402,99.5925
1371107306402,100.023
1371107366402,99.9709
1371107426402,99.8255
1371107486402,100.590
1371108026402,99.7599
1371108086402,98.8954
1371108146402,100.191
1371108206402,100.029
1371108266402,99.9858
1371108326402,100.306
1371108386402,100.237
1371108446402,99.8977
1371108506402,100.118
1371108566402,100.309
1371108626402,100.375
1371108686402,99.4594
1371108746402,100.199
1371108806402,99.9031
1371108866402,100.375
1371108926402,100.477
1371108986402,100.421
1371109046402,99.9717
1371109106402,99.5327
1371109166402,100.271
1371109226402,100.159
1371109286402,100.507
1371109346402,100.275
1371109406402,100.479
1371109466402,100.351
1371109526402,100.158
1371109586402,99.7366
1371109646402,100.454
1371109706402,100.069
1371109766402,100.592
1371109826402,100.410
1371109886402,100.459
1371109946402,100.201
1371110006402,100.562
1371110066402,99.7027
1371110126402,100.037
1371110186402,100.452
1371110246402,99.9372
1371110306402,100.691
1371110366402,100.785
1371110426412,100.536
1371110486412,100.410
1371110546412,100.303
1371110606412,100.383
1371110666412,100.537
1371110726412,100.130
1371110786412,100.791
1371110846412,100.360
1371110906412,100.392
1371110966412,100.010
1371111026412,100.572
1371111086412,99.8808
1371111146412,99.8230
1371111206412,100.367
1371111266412,100.299
1371111326412,99.9807
1371111386412,100.332
1371111446412,100.632
1371111506412,100.409
1371111566412,100.018
1371111626412,100.326
1371111686412,100.248
1371111746412,100.329
1371111806412,100.622
1371111866412,100.120
1371111926412,100.006
1371111986412,99.9999
1371112046412,99.6493
1371112106412,99.9654
1371112166412,100.020
1371112226412,100.170
1371112286412,99.9345
1371112346412,99.9171
1371112406412,100.169
1371112466412,99.9171
1371112526412,99.8145
1371112586412,100.674
1371112646412,100.193
1371112706412,99.7098
1371112766412,99.9105
1371112826412,99.2943
1371112886412,99.9517
1371112946412,99.6715
1371113006412,100.591
1371113066412,99.6744
1371113126412,99.8422
1371113186412,100.211
1371113246412,99.6525
1371113306412,99.8016
1371113366412,99.9187
1371113426412,99.8494
1371113486412,99.7827
1371113546412,99.7833
1371113606412,99.7526
1371113666412,99.5773
1371113726412,99.8197
1371113786412,99.9848
1371113846412,99.9065
1371113906412,99.9388
1371113966412,100.390
1371114026421,99.9820
1371114086421,100.122
1371114146421,99.0681
1371114206421,99.9140
1371114266421,99.6040
1371114326421,99.4420
1371114386421,100.020
1371114446421,99.4570
1371114506421,99.6625
1371114566421,99.9596
1371114626421,100.100
1371114686421,99.9925
1371114746421,100.158
1371114806421,100.090
1371114866421,99.8251
1371114926421,100.147
1371114986421,100.215
1371115046421,100.273
1371115106421,100.548
1371115166421,100.075
1371115226421,100.376
1371115286421,100.387
1371115346421,99.8054
1371115406421,100.645
1371115466421,100.416
1371115526421,100.351
1371115586421,100.769
1371115646421,100.727
1371115706421,99.9037
1371115766421,100.196
1371115826421,100.244
1371115886421,100.188
1371115946421,100.426
1371116006421,100.434
1371116066421,100.467
1371116126421,100.572
1371116186421,100.498
1371116246421,101.133
1371116306421,100.313
1371116366421,99.9313
1371116426421,100.486
1371116486421,100.385
1371116546421,100.602
1371116606421,100.785
1371116666421,100.357
1371116726421,100.828
1371116786421,100.806
1371116846421,101.394
1371116906421,100.760
1371116966421,100.771
1371117026421,100.593
1371117086421,100.746
1371117146421,101.174
1371117206421,101.156
1371117266421,101.279
1371117326421,101.451
1371117386421,101.071
1371117446421,101.065
1371117506421,101.550
1371117566421,101.494
1371117626430,100.948
1371117686430,101.369
1371117746430,101.634
1371117806430,100.847
1371117866430,100.827
1371117926430,101.382
1371117986430,101.492
1371118046430,101.722
1371118106430,101.832
1371118166430,101.147
1371118226430,101.386
1371118286430,101.133
1371118346430,101.032
1371118406430,101.425
1371118466430,101.001
1371118526430,100.681
1371118586430,101.375
1371118646430,101.338
1371118706430,101.136
1371118766430,101.312
1371118826430,101.278
1371118886430,101.001
1371118946430,101.469
1371119006430,101.309
1371119066430,100.657
1371119126430,101.419
1371119186430,100.989
1371119246430,101.194
1371119306430,101.289
1371119366430,101.095
1371119426430,101.343
1371119486430,101.927
1371119546430,101.665
1371119606430,101.344
1371119666430,100.997
1371119726430,101.416
1371119786430,101.502
1371119846430,101.256
1371119906430,101.077
1371119966430,101.188
1371120026430,101.220
1371120086430,101.310
1371120146430,100.822
1371120206430,101.400
1371120266430,101.398
1371120326430,101.568
1371120386430,101.459
1371120446430,101.335
1371120506430,100.961
1371120566430,101.655
1371120626430,101.099
1371120686430,101.208
1371120746430,101.462
1371120806430,101.426
1371120866430,101.538
1371120926430,101.279
1371120986430,101.356
1371121046430,101.384
1371121106430,101.224
1371121166430,100.741
1371121226439,101.308
1371121286439,101.607
1371121346439,101.296
1371121406439,101.331
1371121466439,100.891
1371121526439,101.184
1371121586440,101.337
1371121646439,101.320
1371121706439,101.156
1371121766439,100.890
1371121826439,101.245
1371121886440,101.020
1371121946440,100.904
1371122006440,100.534
1371122066440,100.991
1371122126440,101.031
1371122186440,101.024
1371122246440,100.741
1371122306439,100.929
1371122366439,101.135
1371122426439,100.934
1371122486439,100.851
1371122546439,100.995
1371122606439,100.935
1371122666439,100.273
1371122726439,100.685
1371122786439,100.412
1371122846439,100.083
1371122906440,100.965
1371122966439,101.022
1371123026439,100.989
1371123086439,100.778
1371123146439,100.640
1371123206439,100.359
1371123266440,100.823
1371123326440,100.519
1371123386440,100.111
1371123446440,100.395
1371123506440,100.503
1371123566440,100.338
1371123626440,100.918
1371123686439,100.655
1371123746439,99.4962
1371123806439,99.9109
1371123866439,100.236
1371123926439,100.442
1371123986439,100.329
1371124046439,100.719
1371124106439,99.7383
1371124166439,100.475
1371124226439,100.304
1371124286440,100.083
1371124346439,100.129
1371124406439,100.447
1371124466439,100.198
1371124526439,100.164
1371124586440,100.310
1371124646440,100.356
1371124706440,100.665
1371124766440,100.230
1371124826449,100.461
1371124886449,100.693
1371124946449,100.113
1371125006449,100.307
1371125066449,100.450
1371125126449,100.271
1371125186449,100.153
1371125246449,100.426
1371125306449,100.428
1371125366449,99.5943
1371125426449,100.442
1371125486449,100.730
1371125546449,100.243
1371125606449,100.316
1371125666449,100.234
1371125726449,100.664
1371125786449,100.277
1371125846449,100.176
1371125906449,100.098
1371125966449,100.616
1371126026449,100.436
1371126086449,100.435
1371126146449,99.9879
1371126206449,100.271
1371126266449,100.410
1371126326449,100.240
1371126386449,100.439
1371126446449,100.671
1371126506449,100.010
1371126566449,100.602
1371126626449,100.780
1371126686449,100.468
1371126746449,100.801
1371126806449,100.706
1371126866449,100.612
1371126926449,100.496
1371126986449,100.601
1371127046449,100.811
1371127106449,100.678
1371127166449,100.676
1371127226449,100.977
1371127286449,100.824
1371127346449,100.727
1371127406449,100.744
1371127466449,100.897
1371127526449,100.885
1371127586449,100.763
1371127646449,100.895
1371127706449,101.299
1371127766449,100.482
1371127826449,100.781
1371127886449,100.787
1371127946449,100.187
1371128006449,101.074
1371128066449,100.609
1371128126449,101.208
1371128186449,101.210
1371128246449,100.499
1371128306449,100.859
1371128366449,100.467
1371128426458,100.743
1371128486458,100.446
1371128546458,100.468
1371128606458,100.190
1371128666458,101.010
1371128726458,101.085
1371128786458,101.070
1371128846458,100.388
1371128906458,100.864
1371128966458,100.684
1371129026458,100.216
1371129086458,100.083
1371129146458,100.371
1371129206458,100.544
1371129266458,100.244
1371129326458,100.163
1371129386458,100.618
1371129446458,100.875
1371129506458,100.577
1371129566458,100.663
1371129626458,99.9570
1371129686458,100.556
1371129746458,100.332
1371129806458,100.714
1371129866458,100.649
1371129926458,100.593
1371129986458,100.336
1371130046458,100.661
1371130106458,100.650
1371130166458,100.414
1371130226458,100.144
1371130286458,100.523
1371130346458,100.553
1371130406458,100.666
1371130466458,100.068
1371130526458,100.390
1371130586458,100.592
1371130646458,100.410
1371130706458,100.170
1371130766458,100.042
1371130826458,100.156
1371130886458,100.483
1371130946458,100.319
1371131006458,100.050
1371131066458,100.731
1371131126458,100.835
1371131186458,100.202
1371131246458,100.457
1371131306458,100.208
1371131366458,100.676
1371131426458,100.093
1371131486458,99.9250
1371131546458,99.9197
1371131606458,100.809
1371131666458,100.802
1371131726458,100.098
1371131786458,100.862
1371131846458,100.151
1371131906458,99.6960
1371131966458,100.371
1371132026467,100.431
1371132086467,99.9628
1371132146467,100.492
1371132206467,100.722
1371132266467,100.828
1371132326467,100.516
1371132386467,100.442
1371132446467,100.221
1371132506467,100.477
1371132566467,100.636
1371132626467,100.179
1371132686467,100.774
1371132746467,100.750
1371132806467,100.283
1371132866467,100.408
1371132926467,100.401
1371132986467,100.882
1371133046467,100.812
1371133106467,100.530
1371133166467,100.529
1371133226467,100.756
1371133286467,101.144
1371133346467,100.647
1371133406467,100.410
1371133466467,100.704
1371133526467,100.353
1371133586467,100.756
1371133646467,100.566
1371133706467,100.586
1371133766467,100.949
1371133826467,100.940
1371133886467,100.784
1371133946467,100.304
1371134006467,100.464
1371134066467,100.803
1371134126467,100.719
1371134186467,100.519
1371134246467,100.557
1371134306467,100.973
1371134366467,100.627
1371134426467,100.702
1371134486467,101.300
1371134546467,100.256
1371134606467,101.084
1371134666467,100.671
1371134726467,100.493
1371134786467,100.409
1371134846467,100.588
1371134906467,100.394
1371134966467,100.609
1371135026467,100.715
1371135086467,100.915
1371135146467,100.507
1371135206467,100.240
1371135266467,100.776
1371135326467,100.868
1371135386467,100.568
1371135446467,100.803
1371135506467,100.642
1371135566467,100.353
1371135626476,100.463
1371135686476,100.544
1371135746476,100.456
1371135806476,99.9761
1371135866476,100.196
1371135926476,100.401
1371135986476,100.480
1371136046476,100.589
1371136106476,100.911
1371136166476,100.362
1371136226476,100.175
1371136286476,100.142
1371136346476,100.722
1371136406476,100.401
1371136466476,100.397
1371136526476,100.260
1371136586476,100.771
1371136646476,100.282
1371136706476,100.637
1371136766476,100.557
1371136826476,100.754
1371136886476,100.852
1371136946476,100.835
1371137006476,100.695
1371137066476,100.949
1371137126476,100.430
1371137186476,100.438
1371137246476,100.343
1371137306476,100.337
1371137366476,100.294
1371137426476,100.419
1371137486476,100.743
1371137546476,100.787
1371137606476,101.007
1371137666476,100.694
1371137726476,100.701
1371137786476,100.626
1371137846476,100.781
1371137906476,100.485
1371137966476,100.660
1371138026476,100.819
1371138086476,100.984
1371138146476,100.684
1371138206476,100.767
1371138266476,100.891
1371138326476,100.561
1371138386476,100.610
1371138446476,100.399
1371138506476,100.788
1371138566476,100.844
1371138626476,101.135
1371138686476,100.744
1371138746476,100.847
1371138806476,100.908
1371138866476,100.450
1371138926476,100.878
1371138986476,100.971
1371139046476,100.900
1371139106476,101.350
1371139166476,101.249
1371139226486,100.616
1371139286486,100.631
1371139346486,100.801
1371139406486,100.880
1371139466486,100.786
1371139526486,100.540
1371139586486,100.963
1371139646486,101.146
1371139706486,100.743
1371139766486,101.308
1371139826486,100.779
1371139886486,101.063
1371139946486,100.463
1371140006486,100.690
1371140066486,100.569
1371140126486,101.214
1371140186486,101.592
1371140246486,100.803
1371140306486,100.807
1371140366486,101.217
1371140426486,101.538
1371140486486,101.116
1371140546486,101.255
1371140606486,101.166
1371140666486,100.883
1371140726486,101.430
1371140786486,101.054
1371140846486,101.235
1371140906486,101.206
1371140966486,101.413
1371141026486,101.102
1371141086486,101.090
1371141146486,100.865
1371141206486,101.262
1371141266486,101.325
1371141326486,101.366
1371141386486,101.157
1371141446486,101.481
1371141506486,101.444
1371141566486,100.958
1371141626486,101.473
1371141686486,101.543
1371141746486,101.521
1371141806486,101.048
1371141866486,101.124
1371141926486,101.270
1371141986486,101.234
1371142046486,101.144
1371142106486,101.332
1371142166486,101.497
1371142226486,101.620
1371142286486,101.889
1371142346486,101.875
1371142406486,101.237
1371142466486,101.676
1371142526486,101.819
1371142586486,101.378
1371142646486,101.422
1371142706486,101.642
1371142766486,101.743
1371142826496,102.274
1371142886496,101.962
1371142946496,101.669
1371143006496,101.945
1371143066496,102.010
1371143126496,101.813
1371143186496,101.677
1371143246496,101.325
1371143306496,102.321
1371143366496,101.737
1371143426496,101.865
1371143486496,101.691
1371143546496,101.819
1371143606496,101.622
1371143666496,101.935
1371143726496,102.056
1371143786496,101.958
1371143846496,101.998
1371143906496,102.076
1371143966496,101.929
1371144026496,101.463
1371144086496,102.361
1371144146496,102.309
1371144206496,102.133
1371144266496,102.476
1371144326496,102.320
1371144386496,102.309
1371144446496,102.074
1371144506496,102.060
1371144566496,102.516
1371144626496,101.918
1371144686496,101.840
1371144746496,102.118
1371144806496,102.140
1371144866496,101.775
1371144926496,102.289
1371144986496,102.486
1371145046496,102.373
1371145106496,102.272
1371145166496,101.998
1371145226496,102.618
1371145286496,102.157
1371145346496,102.725
1371145406496,102.826
1371145466496,101.845
1371145526496,103.089
1371145586496,102.559
1371145646496,102.632
1371145706496,102.262
1371145766496,103.156
1371145826496,102.851
1371145886496,102.661
1371145946496,102.417
1371146006496,102.958
1371146066496,102.551
1371146126496,103.012
1371146186496,102.664
1371146246496,102.651
1371146306496,102.940
1371146366496,103.165
1371146426506,102.957
1371146486506,103.169
1371146546506,102.932
1371146606506,102.703
1371146666506,102.664
1371146726506,103.299
1371146786506,102.654
1371146846506,102.695
1371146906506,102.152
1371146966506,102.784
1371147026506,102.656
1371147086506,102.659
1371147146506,103.166
1371147206506,102.667
1371147266506,103.004
1371147326506,102.825
1371147386506,103.195
1371147446506,102.333